User: anonymous   Login
Location: Unspecified
(0.0000°N, 0.0000°E)
Time: 20:10:45
(UTC+00:00)
Language:

STARLINK-4116 - Orbit

View from above orbital plane
View from above orbital plane
View from above satellite
View from above satellite

Ground track
Ground track

The orbit is defined by the following mean orbital elements,

1 53164U          26145.47358759 +.00000000 +00000-0 +19257-4 0 00006
2 53164  53.2106 179.4255 0000843  77.0345 283.0741 15.08840517    06
Epoch (UTC): 25 May 2026 11:21:57
Eccentricity: 0.0000843
inclination: 53.2106°
perigee height: 539 km
apogee height: 540 km
right ascension of ascending node: 179.4255°
argument of perigee: 77.0345°
revolutions per day: 15.08840517
mean anomaly at epoch: 283.0741°

The dashed part of the orbit path shows where the satellite is in the earth's shadow,  

DLR